Location: Home
(42.5358°N, 72.7383°W)
Time: 22:12:54
(UTC-05:00)

Vanguard 1 Rocket - Pass Details

Date: 03 December 2021
Orbit: 651 x 4225 km, 34.3° (Epoch: 26 January)

Event Time Altitude Azimuth Distance (km) Brightness Sun altitude
Exits shadow 04:32:28 33° 247° (WSW) 3,585 9.9 -27.1°
Maximum altitude 04:41:02 66° 178° (S) 3,315 10.1 -25.5°
Drops below altitude 10° 05:05:05 10° 104° (ESE) 7,377 13.2 -21.2°
Sets 05:11:12 0° 102° (ESE) 8,469 14.0 -20.1°
